N1GUJ Weather Reports


time (UTC)temp
C
wind
direction
speed
KPH
gust
KPH
rain 1hr
cm
rain 24hr
cm
rain mn
cm
humidity
%
barometer
mb
20260507141421 8 154 3.2 6.4 0.00 0.00 0.00 62 1007.9
20260507140919 8 230 1.6 6.4 0.00 0.00 0.00 59 1007.8
20260507140421 7 182 0.0 8.0 0.00 0.00 0.00 65 1007.8
20260507135919 7 192 3.2 8.0 0.00 0.00 0.00 61 1007.8
20260507135420 7 224 4.8 9.7 0.00 0.00 0.00 63 1007.9
20260507134916 7 220 1.6 12.9 0.00 0.00 0.00 62 1007.8
20260507134420 7 335 1.6 8.0 0.00 0.00 0.00 68 1007.8
20260507133925 7 339 0.0 6.4 0.00 0.00 0.00 68 1007.7
20260507133417 7 222 0.0 14.5 0.00 0.00 0.00 70 1007.7
20260507132917 7 255 1.6 6.4 0.00 0.00 0.00 70 1007.7
20260507132418 6 355 0.0 3.2 0.00 0.00 0.00 72 1007.7
20260507131919 6 350 0.0 6.4 0.00 0.00 0.00 72 1007.8
20260507131422 6 212 8.0 9.7 0.00 0.00 0.00 76 1007.6
20260507130916 6 219 1.6 8.0 0.00 0.00 0.00 77 1007.6
20260507130417 6 249 1.6 4.8 0.00 0.00 0.00 77 1007.6
20260507125919 5 253 0.0 4.8 0.00 0.00 0.00 79 1007.7
20260507125417 5 251 1.6 3.2 0.00 0.00 0.00 81 1007.7
20260507124919 5 280 1.6 4.8 0.00 0.00 0.00 82 1007.6
20260507124416 5 273 0.0 6.4 0.00 0.00 0.00 82 1007.6
20260507123925 5 232 1.6 9.7 0.00 0.00 0.00 88 1007.6
20260507123418 5 241 0.0 4.8 0.00 0.00 0.00 87 1007.7
20260507122920 5 239 0.0 6.4 0.00 0.00 0.00 88 1007.6
20260507122417 5 278 4.8 4.8 0.00 0.00 0.00 91 1007.7
20260507121919 5 212 0.0 6.4 0.00 0.00 0.00 90 1007.7
20260507121423 5 333 0.0 6.4 0.00 0.00 0.00 91 1007.6
20260507120919 5 228 1.6 3.2 0.00 0.00 0.00 92 1007.5
20260507120416 5 228 0.0 9.7 0.00 0.00 0.00 93 1007.5
20260507115919 5 228 0.0 9.7 0.00 0.00 0.00 93 1007.5
20260507115419 5 357 0.0 4.8 0.00 0.00 0.00 93 1007.4
20260507114919 5 8 0.0 0.0 0.00 0.00 0.00 93 1007.3
20260507114419 5 8 0.0 0.0 0.00 0.00 0.00 93 1007.2
20260507113920 5 8 0.0 1.6 0.00 0.00 0.00 93 1007.1
20260507113416 5 8 0.0 1.6 0.00 0.00 0.00 94 1007.1
20260507112916 5 8 0.0 1.6 0.00 0.00 0.00 94 1007.0
20260507112417 5 8 0.0 0.0 0.00 0.00 0.00 94 1007.0
20260507111916 5 8 0.0 1.6 0.00 0.00 0.00 94 1007.0
20260507111419 5 9 0.0 0.0 0.00 0.00 0.00 94 1007.2
20260507110916 5 9 0.0 0.0 0.00 0.00 0.00 94 1007.3
20260507110422 5 9 0.0 1.6 0.00 0.00 0.00 94 1007.3
20260507105922 5 9 0.0 0.0 0.00 0.00 0.00 94 1007.4
20260507105416 5 9 0.0 1.6 0.00 0.00 0.00 94 1007.2
20260507104916 5 9 0.0 1.6 0.00 0.00 0.00 94 1007.1
20260507104416 5 9 0.0 0.0 0.00 0.00 0.00 94 1006.9
20260507103919 5 9 0.0 0.0 0.00 0.00 0.00 94 1006.9
20260507103416 5 9 0.0 0.0 0.00 0.00 0.00 94 1006.8
20260507102917 5 9 0.0 0.0 0.00 0.00 0.00 94 1006.8
20260507102415 5 9 0.0 0.0 0.00 0.00 0.00 94 1006.8
20260507101919 4 9 0.0 0.0 0.00 0.00 0.00 94 1006.8
20260507101419 4 9 0.0 0.0 0.00 0.00 0.00 94 1006.7
20260507100915 4 9 0.0 0.0 0.00 0.00 0.00 94 1006.7
20260507100419 4 9 0.0 0.0 0.00 0.00 0.00 93 1006.7
20260507095916 4 9 0.0 1.6 0.00 0.00 0.00 93 1006.7
20260507095415 4 9 0.0 0.0 0.00 0.00 0.00 93 1006.8
20260507094919 4 9 0.0 0.0 0.00 0.00 0.00 93 1006.8
20260507094416 4 9 0.0 0.0 0.00 0.00 0.00 93 1006.8
20260507093918 4 9 0.0 0.0 0.00 0.00 0.00 93 1006.8
20260507093416 4 9 0.0 0.0 0.00 0.00 0.00 93 1006.7
20260507092922 4 9 0.0 0.0 0.00 0.00 0.00 93 1006.5
20260507092415 4 9 0.0 0.0 0.00 0.00 0.00 93 1006.6
20260507091915 4 9 0.0 0.0 0.00 0.00 0.00 93 1006.7
20260507091418 4 9 0.0 0.0 0.00 0.00 0.00 93 1006.8
20260507090918 4 9 0.0 0.0 0.00 0.00 0.00 93 1006.7
20260507090418 4 9 0.0 0.0 0.00 0.00 0.00 94 1006.7
20260507085918 4 9 0.0 0.0 0.00 0.00 0.00 93 1006.7
20260507085418 4 9 0.0 0.0 0.00 0.00 0.00 93 1006.8
20260507084921 4 9 0.0 0.0 0.00 0.00 0.00 93 1006.8
20260507084415 4 9 0.0 0.0 0.00 0.00 0.00 93 1006.9
20260507083921 3 9 0.0 0.0 0.00 0.00 0.00 93 1006.9
20260507083415 3 9 0.0 0.0 0.00 0.00 0.00 93 1007.0
20260507082915 3 9 0.0 0.0 0.00 0.00 0.00 93 1007.1
20260507082418 3 9 0.0 0.0 0.00 0.00 0.00 93 1007.2
20260507081918 3 9 0.0 0.0 0.00 0.00 0.00 93 1007.2
20260507081415 3 9 0.0 0.0 0.00 0.00 0.00 93 1007.3
20260507080918 3 9 0.0 0.0 0.00 0.00 0.00 93 1007.2
20260507080419 3 9 0.0 0.0 0.00 0.00 0.00 93 1007.4
20260507075915 3 9 0.0 0.0 0.00 0.00 0.00 93 1007.3
20260507075415 3 9 0.0 0.0 0.00 0.00 0.00 93 1007.3
20260507074915 3 9 0.0 0.0 0.00 0.00 0.00 93 1007.4
20260507074421 3 9 0.0 0.0 0.00 0.00 0.00 93 1007.4
20260507073917 3 9 0.0 0.0 0.00 0.00 0.00 93 1007.5
20260507073415 3 9 0.0 0.0 0.00 0.00 0.00 93 1007.6
20260507072918 3 9 0.0 0.0 0.00 0.00 0.00 93 1007.5
20260507072421 3 9 0.0 0.0 0.00 0.00 0.00 93 1007.5
20260507071918 3 9 0.0 0.0 0.00 0.00 0.00 93 1007.4
20260507071415 3 9 0.0 0.0 0.00 0.00 0.00 93 1007.3
20260507070915 3 9 0.0 0.0 0.00 0.00 0.00 93 1007.3
20260507070415 3 9 0.0 0.0 0.00 0.00 0.00 93 1007.2
20260507065918 3 9 0.0 0.0 0.00 0.00 0.00 93 1007.1
20260507065415 3 9 0.0 0.0 0.00 0.00 0.00 93 1006.9
20260507064915 3 9 0.0 0.0 0.00 0.00 0.00 93 1006.9
20260507064415 3 9 0.0 0.0 0.00 0.00 0.00 93 1006.8
20260507063918 3 9 0.0 0.0 0.00 0.00 0.00 93 1006.7
20260507063415 3 9 0.0 0.0 0.00 0.00 0.00 93 1006.7
20260507062918 3 9 0.0 0.0 0.00 0.00 0.00 93 1006.8
20260507062415 3 9 0.0 0.0 0.00 0.00 0.00 93 1006.9
20260507061918 3 9 0.0 0.0 0.00 0.00 0.00 93 1006.9
20260507061414 3 9 0.0 0.0 0.00 0.00 0.00 93 1007.0
20260507060915 3 9 0.0 0.0 0.00 0.00 0.00 93 1007.0
20260507060418 3 9 0.0 0.0 0.00 0.00 0.00 93 1007.2
20260507055915 3 9 0.0 1.6 0.00 0.00 0.00 93 1007.3
20260507055414 3 9 0.0 1.6 0.00 0.00 0.00 93 1007.3
20260507054915 3 9 0.0 0.0 0.00 0.00 0.00 93 1007.2
20260507054418 3 9 0.0 0.0 0.00 0.00 0.00 93 1007.2
20260507053917 3 9 0.0 0.0 0.00 0.00 0.00 93 1007.3
20260507053421 3 9 0.0 0.0 0.00 0.00 0.00 93 1007.2
20260507052919 3 9 0.0 0.0 0.00 0.00 0.00 92 1007.3
20260507052420 3 9 0.0 0.0 0.00 0.00 0.00 92 1007.4
20260507051916 3 9 0.0 0.0 0.00 0.00 0.00 92 1007.4
20260507051414 3 9 0.0 0.0 0.00 0.00 0.00 92 1007.4
20260507050914 3 9 0.0 0.0 0.00 0.00 0.00 92 1007.5
20260507050420 4 9 0.0 0.0 0.00 0.00 0.00 92 1007.5
20260507045917 4 9 0.0 0.0 0.00 0.00 0.00 93 1007.6
20260507045414 4 9 0.0 0.0 0.00 0.00 0.00 93 1007.8
20260507044914 4 9 0.0 0.0 0.00 0.00 0.00 93 1007.9
20260507044418 4 9 0.0 0.0 0.00 0.00 0.00 93 1007.8
20260507043918 4 9 0.0 0.0 0.00 0.00 0.00 93 1007.8
20260507043416 4 9 0.0 0.0 0.00 0.00 0.00 93 1007.8
20260507042914 4 9 0.0 0.0 0.00 0.00 0.00 93 1007.8
20260507042417 4 9 0.0 0.0 0.00 0.00 0.00 93 1007.7
20260507041914 4 9 0.0 0.0 0.00 0.00 0.00 92 1007.7
20260507041414 4 9 0.0 0.0 0.00 0.00 0.00 93 1007.7
20260507040917 4 9 0.0 0.0 0.00 0.00 0.00 93 1007.8
20260507040417 4 9 0.0 0.0 0.00 0.00 0.00 93 1007.7
20260507035914 4 9 0.0 0.0 0.00 0.00 0.00 93 1007.7
20260507035420 4 9 0.0 0.0 0.00 0.00 0.00 93 1007.7
20260507034914 4 9 0.0 0.0 0.00 0.00 0.00 92 1007.7
20260507034414 4 9 0.0 0.0 0.00 0.00 0.00 92 1007.8
20260507033914 5 9 0.0 0.0 0.00 0.00 0.00 92 1007.8
20260507033415 5 9 0.0 0.0 0.00 0.00 0.00 92 1007.9
20260507032918 5 9 0.0 0.0 0.00 0.00 0.00 92 1007.9
20260507032415 5 9 0.0 0.0 0.00 0.00 0.00 92 1007.9
20260507031917 5 9 0.0 0.0 0.00 0.00 0.00 93 1007.9
20260507031417 5 9 0.0 0.0 0.00 0.00 0.00 93 1007.9
20260507030914 5 9 0.0 0.0 0.00 0.00 0.00 93 1008.0
20260507030414 5 9 0.0 0.0 0.00 0.00 0.00 93 1008.0
20260507025917 5 9 0.0 0.0 0.00 0.00 0.00 93 1008.0
20260507025415 5 9 0.0 0.0 0.00 0.00 0.00 93 1007.9
20260507024920 5 9 0.0 0.0 0.00 0.00 0.00 93 1008.0
20260507024414 5 9 0.0 0.0 0.00 0.00 0.00 93 1007.9
20260507023917 5 9 0.0 0.0 0.00 0.00 0.00 93 1007.9
20260507023414 5 9 0.0 0.0 0.00 0.00 0.00 93 1007.9
20260507022914 5 9 0.0 0.0 0.00 0.00 0.00 93 1007.9
20260507022414 5 9 0.0 0.0 0.00 0.00 0.00 93 1008.0
20260507021914 5 9 0.0 0.0 0.00 0.00 0.00 93 1007.8
20260507021417 5 9 0.0 0.0 0.00 0.00 0.00 93 1007.9
20260507020916 5 9 0.0 0.0 0.00 0.00 0.00 93 1008.0
20260507020415 5 9 0.0 0.0 0.00 0.00 0.00 93 1007.8
20260507015918 5 9 0.0 0.0 0.00 0.00 0.00 93 1007.7
20260507015423 5 9 0.0 0.0 0.00 0.00 0.00 93 1007.8
20260507014913 5 9 0.0 0.0 0.00 0.00 0.00 93 1008.1
20260507014413 5 9 0.0 0.0 0.00 0.00 0.00 93 1008.2
20260507013916 5 9 0.0 0.0 0.00 0.00 0.00 93 1008.3
20260507013413 5 9 0.0 0.0 0.00 0.00 0.00 93 1008.0
20260507012916 5 9 0.0 0.0 0.00 0.00 0.00 93 1008.0
20260507012422 5 9 0.0 0.0 0.00 0.00 0.00 93 1008.0
20260507011913 5 9 0.0 0.0 0.00 0.00 0.00 93 1008.0
20260507011413 5 9 0.0 0.0 0.00 0.00 0.00 93 1008.3
20260507010416 5 9 0.0 0.0 0.00 0.00 0.00 92 1008.0
20260507005918 5 9 0.0 0.0 0.00 0.00 0.00 92 1008.0
20260507005416 5 9 0.0 1.6 0.00 0.00 0.00 92 1008.0
20260507004913 5 9 0.0 0.0 0.00 0.00 0.00 93 1007.9
20260507004414 5 9 0.0 0.0 0.00 0.00 0.00 93 1007.8
20260507003917 5 9 0.0 0.0 0.00 0.00 0.00 93 1007.7
20260507003416 5 9 0.0 0.0 0.00 0.00 0.00 93 1007.7
20260507002916 5 9 0.0 0.0 0.00 0.00 0.00 93 1007.7
20260507002416 5 9 0.0 1.6 0.00 0.00 0.00 93 1007.6
20260507001914 5 8 0.0 1.6 0.00 0.00 0.00 92 1007.5
20260507001422 5 8 0.0 0.0 0.00 0.00 0.00 93 1007.4
20260507000913 5 8 0.0 0.0 0.00 0.00 0.00 93 1007.4
20260507000413 5 8 0.0 1.6 0.00 0.00 0.00 93 1007.2
20260506235917 5 10 0.0 0.0 0.00 0.00 0.00 93 1007.1
20260506235419 5 10 0.0 0.0 0.00 0.00 0.00 93 1006.9
20260506234913 5 10 0.0 0.0 0.00 0.00 0.00 93 1006.8
20260506234416 5 10 0.0 0.0 0.00 0.00 0.00 93 1006.7
20260506233916 5 10 0.0 0.0 0.00 0.00 0.00 93 1006.7
20260506233423 5 10 0.0 0.0 0.00 0.00 0.00 93 1006.7
20260506232913 5 10 0.0 0.0 0.00 0.00 0.00 93 1006.6
20260506232416 5 10 0.0 0.0 0.00 0.00 0.00 93 1006.6
20260506231913 5 10 0.0 0.0 0.00 0.00 0.00 92 1006.6
20260506231419 5 10 0.0 0.0 0.00 0.00 0.00 92 1006.5
20260506230913 5 10 0.0 0.0 0.00 0.00 0.00 92 1006.4
20260506230413 5 10 0.0 0.0 0.00 0.00 0.00 92 1006.4
20260506225916 5 10 0.0 0.0 0.00 0.00 0.00 92 1006.4
20260506225413 5 10 0.0 1.6 0.00 0.00 0.00 93 1006.4
20260506224922 5 10 0.0 0.0 0.00 0.00 0.00 93 1006.6
20260506224416 5 10 0.0 0.0 0.00 0.00 0.00 93 1006.6
20260506223913 5 10 0.0 0.0 0.00 0.00 0.00 92 1006.7
20260506223419 5 10 0.0 1.6 0.00 0.00 0.00 93 1006.6
20260506222913 5 10 0.0 0.0 0.00 0.00 0.00 93 1006.6
20260506222413 5 10 0.0 1.6 0.00 0.00 0.00 93 1006.4
20260506221916 5 10 0.0 6.4 0.00 0.00 0.00 92 1006.6
20260506221416 5 72 4.8 4.8 0.00 0.00 0.00 92 1006.5
20260506220912 5 346 1.6 3.2 0.00 0.00 0.00 92 1006.8
20260506220413 5 345 1.6 1.6 0.00 0.00 0.00 93 1006.7
20260506215916 5 347 0.0 8.0 0.00 0.00 0.00 92 1006.6
20260506215415 5 349 0.0 4.8 0.00 0.00 0.00 92 1006.6
20260506214914 5 349 1.6 3.2 0.00 0.00 0.00 93 1006.6
20260506214413 5 349 1.6 3.2 0.00 0.00 0.00 92 1006.5
20260506213912 5 350 0.0 1.6 0.00 0.00 0.00 92 1006.4
20260506213419 5 339 0.0 6.4 0.00 0.00 0.00 92 1006.5
20260506212918 5 341 0.0 3.2 0.00 0.00 0.00 92 1006.4
20260506212414 5 341 0.0 1.6 0.00 0.00 0.00 93 1006.3
20260506211913 5 340 0.0 4.8 0.00 0.00 0.00 92 1006.2
20260506211419 5 340 1.6 4.8 0.00 0.00 0.00 92 1006.1
20260506210912 5 341 0.0 3.2 0.00 0.00 0.00 92 1006.0
20260506210414 5 341 1.6 8.0 0.00 0.00 0.00 92 1006.1
20260506205917 5 10 1.6 3.2 0.00 0.00 0.00 92 1006.3
20260506205415 5 10 0.0 4.8 0.00 0.00 0.00 92 1006.4
20260506204912 5 15 1.6 3.2 0.00 0.00 0.00 92 1006.5
20260506204412 5 15 0.0 3.2 0.00 0.00 0.00 92 1006.4
20260506203912 5 15 0.0 4.8 0.00 0.00 0.00 92 1006.4
20260506203413 6 15 0.0 4.8 0.00 0.00 0.00 92 1006.3
20260506202915 6 16 0.0 3.2 0.00 0.00 0.00 92 1006.3
20260506202412 6 16 0.0 6.4 0.00 0.00 0.00 92 1006.3
20260506201912 6 352 0.0 4.8 0.00 0.00 0.00 92 1006.3
20260506201415 6 353 0.0 4.8 0.00 0.00 0.00 92 1006.2
20260506200918 6 353 0.0 1.6 0.00 0.00 0.00 92 1006.2
20260506200416 6 353 0.0 3.2 0.00 0.00 0.00 92 1006.2
20260506195912 6 353 3.2 6.4 0.00 0.00 0.00 92 1006.2
20260506195415 6 355 0.0 3.2 0.00 0.00 0.00 92 1006.0
20260506194912 6 355 0.0 3.2 0.00 0.00 0.00 92 1006.0
20260506194415 6 355 0.0 3.2 0.00 0.00 0.00 92 1006.0
20260506193915 6 355 0.0 3.2 0.00 0.00 0.00 92 1006.0
20260506193412 6 354 0.0 1.6 0.00 0.00 0.00 92 1006.0
20260506192913 6 354 0.0 4.8 0.00 0.00 0.00 92 1005.9
20260506192412 6 357 0.0 3.2 0.00 0.00 0.00 92 1005.8
20260506191913 6 356 1.6 3.2 0.00 0.00 0.00 93 1005.8
20260506191412 6 356 0.0 0.0 0.00 0.00 0.00 93 1005.8
20260506190916 6 356 0.0 1.6 0.00 0.00 0.00 92 1005.7
20260506190412 5 356 0.0 3.2 0.00 0.00 0.00 92 1005.8
20260506185915 5 356 0.0 0.0 0.00 0.00 0.00 92 1005.9
20260506185418 5 356 0.0 4.8 0.00 0.00 0.00 92 1006.0
20260506184912 5 356 0.0 1.6 0.00 0.00 0.00 92 1006.0
20260506184413 5 357 0.0 1.6 0.00 0.00 0.00 92 1006.2
20260506183915 5 357 0.0 6.4 0.00 0.00 0.00 92 1006.3
20260506183418 5 355 0.0 3.2 0.00 0.00 0.00 92 1006.4
20260506182915 5 355 0.0 3.2 0.00 0.00 0.00 92 1006.5
20260506182418 5 355 0.0 3.2 0.00 0.00 0.00 92 1006.4
20260506181918 5 355 1.6 1.6 0.00 0.00 0.00 92 1006.5
20260506181415 5 355 0.0 1.6 0.00 0.00 0.00 92 1006.6
20260506180917 5 355 0.0 4.8 0.00 0.00 0.00 92 1006.7
20260506180415 5 355 0.0 0.0 0.00 0.00 0.00 92 1006.6
20260506175912 5 355 0.0 1.6 0.00 0.00 0.00 92 1006.7
20260506175413 5 355 1.6 3.2 0.00 0.00 0.00 92 1006.6
20260506174912 5 355 0.0 3.2 0.00 0.00 0.00 92 1006.8
20260506174412 5 355 0.0 3.2 0.00 0.00 0.00 92 1006.9
20260506173915 5 355 0.0 1.6 0.00 0.00 0.00 93 1006.8
20260506173417 5 355 0.0 1.6 0.00 0.00 0.00 92 1006.9
20260506172912 5 355 1.6 1.6 0.00 0.00 0.00 92 1006.9
20260506172418 5 355 0.0 0.0 0.00 0.00 0.00 92 1007.1
20260506171913 5 355 0.0 3.2 0.00 0.00 0.00 92 1007.0
20260506171421 5 355 0.0 3.2 0.00 0.00 0.00 92 1006.9
20260506170917 5 355 0.0 4.8 0.00 0.00 0.00 92 1007.0
20260506170412 5 355 0.0 1.6 0.00 0.00 0.00 92 1006.7
20260506165911 5 355 0.0 3.2 0.00 0.00 0.00 92 1006.8
20260506165414 5 356 0.0 3.2 0.00 0.00 0.00 92 1007.1
20260506164914 5 356 0.0 3.2 0.00 0.00 0.00 92 1007.0
20260506164417 5 356 0.0 1.6 0.00 0.00 0.00 92 1007.1
20260506163911 5 356 0.0 3.2 0.00 0.00 0.00 92 1007.1
20260506163414 5 356 0.0 1.6 0.00 0.00 0.00 92 1007.2
20260506162914 5 356 0.0 3.2 0.00 0.00 0.00 92 1007.2
20260506162414 5 356 0.0 3.2 0.00 0.00 0.00 92 1007.3
20260506161911 5 356 0.0 4.8 0.00 0.00 0.00 92 1007.4
20260506161414 5 4 0.0 1.6 0.00 0.00 0.00 92 1007.4
20260506160911 5 4 1.6 1.6 0.00 0.00 0.00 92 1007.4
20260506160414 5 4 0.0 3.2 0.00 0.00 0.00 92 1007.4
20260506155917 5 4 0.0 3.2 0.00 0.00 0.00 92 1007.4
20260506155411 5 4 0.0 4.8 0.00 0.00 0.00 92 1007.5
20260506154914 5 1 1.6 4.8 0.00 0.00 0.00 92 1007.6
20260506154411 5 18 0.0 4.8 0.00 0.00 0.00 92 1007.6
20260506153911 5 333 0.0 4.8 0.00 0.00 0.00 92 1007.5
20260506153414 5 333 0.0 3.2 0.00 0.00 0.00 92 1007.3
20260506152918 5 333 0.0 3.2 0.00 0.00 0.00 91 1007.5
20260506152411 5 334 0.0 8.0 0.00 0.00 0.00 91 1007.6
20260506151914 5 358 0.0 1.6 0.00 0.00 0.00 92 1007.3
20260506151411 5 359 0.0 3.2 0.00 0.00 0.00 91 1007.4
20260506150917 5 359 0.0 0.0 0.00 0.00 0.00 92 1007.3
20260506150411 5 359 0.0 1.6 0.00 0.00 0.00 92 1007.2
20260506145911 5 16 0.0 0.0 0.00 0.00 0.00 92 1007.2
20260506145411 5 15 0.0 4.8 0.00 0.00 0.00 92 1007.2
20260506144914 5 323 0.0 0.0 0.00 0.00 0.00 92 1007.2
20260506144417 5 323 0.0 1.6 0.00 0.00 0.00 92 1007.3
20260506143918 5 323 0.0 0.0 0.00 0.00 0.00 92 1007.2
20260506143418 5 323 0.0 0.0 0.00 0.00 0.00 92 1007.2
20260506142911 5 323 0.0 0.0 0.00 0.00 0.00 92 1007.2
20260506142411 5 323 0.0 0.0 0.00 0.00 0.00 92 1007.4
20260506141911 5 323 0.0 0.0 0.00 0.00 0.00 92 1007.5